Escanaba, MI

9:16 AM EDT on April 30, 2017 (GMT -0400)
Delta County

Weather History for KESC - February, 2015

Change the Weather History Date:

Saturday, February 14, 2015

  Actual Average Record
Temperature  
Mean Temperature 6 °F -  
Max Temperature 12 °F 27 °F 42 °F (2011)
Min Temperature -2 °F 9 °F -16 °F (2016)
Degree Days  
Heating Degree Days 58    
Moisture  
Dew Point -4 °F    
Average Humidity 71    
Maximum Humidity 85    
Minimum Humidity 51    
Precipitation  
Precipitation 0.00 in - - ()
Sea Level Pressure  
Sea Level Pressure 30.06 in    
Wind  
Wind Speed 12 mph (NW)    
Max Wind Speed 23 mph    
Max Gust Speed 37 mph    
Visibility 3 miles    
Events      
Averages and records for this station are not official NWS values.
T = Trace of Precipitation, MM = Missing Value Source: NWS Daily Summary

Daily Weather History Graph

Daily Weather History Graph

Search for Another Location

Airport or City:

Trip Planner

Search our weather history database for the weather conditions in past years. The results will help you decide how hot, cold, wet, or windy it might be!

Date:

Astronomy

Feb. 14, 2015 Rise Set
Actual Time 7:52 AM EST 6:13 PM EST
Civil Twilight 7:21 AM EST 6:44 PM EST
Nautical Twilight 6:46 AM EST 7:18 PM EST
Astronomical Twilight 6:12 AM EST 7:53 PM EST
Moon 4:00 AM EST (2/14) 1:40 PM EST (2/14)
Length of Visible Light 11h 22m
Length of Day
10h 20m
Waning Crescent, 24% of the Moon is Illuminated
Feb 14
Waning Crescent
Feb 18
New
Feb 25
First Quarter
Mar 5
Full
Mar 13
Last Quarter

Hourly Weather History & Observations

Time (EST) Temp. Windchill Dew Point Humidity Pressure Visibility Wind Dir Wind Speed Gust Speed Precip Events Conditions
12:15 AM 15.8 °F 6.1 °F 8.6 °F 73% 29.76 in 4.0 mi WNW 6.9 mph - N/A   Overcast
12:35 AM 14.0 °F 5.1 °F 8.6 °F 79% 29.76 in 1.0 mi North 5.8 mph - N/A   Overcast
12:55 AM 12.2 °F -0.2 °F 8.6 °F 85% 29.76 in 1.5 mi North 9.2 mph - N/A   Overcast
1:15 AM 12.2 °F -0.2 °F 5.0 °F 73% 29.76 in 10.0 mi NNW 9.2 mph - N/A   Overcast
1:35 AM 10.4 °F -1.5 °F 1.4 °F 67% 29.76 in 10.0 mi North 8.1 mph - N/A   Overcast
1:55 AM 10.4 °F 0.8 °F 3.2 °F 73% 29.76 in 10.0 mi NNW 5.8 mph - N/A   Overcast
2:15 AM 8.6 °F -1.3 °F 1.4 °F 73% 29.77 in 10.0 mi NNW 5.8 mph - N/A   Overcast
2:35 AM 8.6 °F -2.6 °F 3.2 °F 79% 29.77 in 8.0 mi NW 6.9 mph - N/A   Mostly Cloudy
2:55 AM 8.6 °F 0.1 °F 1.4 °F 73% 29.77 in 9.0 mi NNW 4.6 mph - N/A   Mostly Cloudy
3:15 AM 8.6 °F -2.6 °F 1.4 °F 73% 29.78 in 4.0 mi NNW 6.9 mph - N/A   Overcast
3:35 AM 8.6 °F -2.6 °F 3.2 °F 79% 29.78 in 2.5 mi NW 6.9 mph - N/A   Overcast
3:55 AM 6.8 °F -4.8 °F 1.4 °F 79% 29.78 in 8.0 mi NW 6.9 mph - N/A   Mostly Cloudy
4:15 AM 6.8 °F -6.9 °F 1.4 °F 79% 29.78 in 3.0 mi NW 9.2 mph - N/A   Mostly Cloudy
4:35 AM 6.8 °F -5.9 °F -0.4 °F 72% 29.78 in 7.0 mi NNW 8.1 mph - N/A   Overcast
4:55 AM 6.8 °F -10.0 °F -2.2 °F 67% 29.78 in 10.0 mi NW 13.8 mph 17.3 mph N/A   Mostly Cloudy
5:15 AM 6.8 °F -10.0 °F -2.2 °F 67% 29.79 in 10.0 mi NW 13.8 mph 21.9 mph N/A   Partly Cloudy
5:35 AM 6.8 °F -8.6 °F -5.8 °F 56% 29.80 in 10.0 mi NW 11.5 mph 19.6 mph N/A   Clear
5:55 AM 5.0 °F -13.0 °F -4.0 °F 66% 29.81 in 10.0 mi NNW 15.0 mph 23.0 mph N/A   Clear
6:15 AM 5.0 °F -14.2 °F -7.6 °F 56% 29.82 in 10.0 mi NNW 17.3 mph 24.2 mph N/A   Clear
6:35 AM 3.2 °F -15.3 °F -7.6 °F 61% 29.83 in 10.0 mi NNW 15.0 mph 26.5 mph N/A   Clear
6:55 AM 3.2 °F -15.9 °F -9.4 °F 56% 29.84 in 10.0 mi NNW 16.1 mph 26.5 mph N/A   Clear
7:15 AM 3.2 °F -17.1 °F -11.2 °F 51% 29.84 in 5.0 mi NW 18.4 mph 29.9 mph N/A   Clear
7:35 AM 3.2 °F -15.9 °F -9.4 °F 56% 29.86 in 8.0 mi NW 16.1 mph 26.5 mph N/A   Scattered Clouds
7:55 AM 3.2 °F -17.1 °F -9.4 °F 56% 29.88 in 2.5 mi NW 18.4 mph 36.8 mph N/A   Scattered Clouds
8:15 AM 3.2 °F -19.0 °F -11.2 °F 51% 29.88 in 3.0 mi NW 23.0 mph 33.4 mph N/A   Mostly Cloudy
8:35 AM 1.4 °F -17.6 °F -11.2 °F 56% 29.90 in 2.5 mi NW 15.0 mph 28.8 mph N/A   Overcast
8:55 AM 1.4 °F -21.0 °F -9.4 °F 61% 29.91 in 1.2 mi NW 21.9 mph 35.7 mph N/A   Overcast
9:15 AM 1.4 °F -19.9 °F -11.2 °F 56% 29.93 in 1.8 mi NNW 19.6 mph 35.7 mph N/A   Overcast
9:35 AM 1.4 °F -20.5 °F -7.6 °F 66% 29.93 in 0.8 mi NW 20.7 mph 31.1 mph N/A   Overcast
9:55 AM 1.4 °F -19.9 °F -5.8 °F 72% 29.94 in 0.5 mi NW 19.6 mph 32.2 mph N/A   Overcast
10:15 AM 1.4 °F -21.4 °F -5.8 °F 72% 29.95 in 0.5 mi NW 23.0 mph 31.1 mph N/A   Overcast
10:35 AM 1.4 °F -19.9 °F -2.2 °F 85% 29.97 in 0.2 mi NW 19.6 mph 33.4 mph N/A   Overcast
10:55 AM 1.4 °F -18.8 °F -2.2 °F 85% 29.99 in 0.2 mi NNW 17.3 mph 29.9 mph N/A   Overcast
11:15 AM 3.2 °F -17.1 °F -2.2 °F 78% 30.00 in 0.2 mi NW 18.4 mph 26.5 mph N/A   Overcast
11:35 AM 3.2 °F -15.3 °F -2.2 °F 78% 30.02 in 0.2 mi NNW 15.0 mph 25.3 mph N/A   Overcast
11:55 AM 3.2 °F -15.3 °F -0.4 °F 85% 30.04 in 0.2 mi NNW 15.0 mph 28.8 mph N/A   Overcast
12:15 PM 3.2 °F -16.5 °F -2.2 °F 78% 30.05 in 0.2 mi NNW 17.3 mph 34.5 mph N/A   Overcast
12:35 PM 3.2 °F -15.9 °F -2.2 °F 78% 30.06 in 0.2 mi NNW 16.1 mph 34.5 mph N/A   Overcast
12:55 PM 3.2 °F -18.6 °F -2.2 °F 78% 30.08 in 0.5 mi NNW 21.9 mph 33.4 mph N/A   Overcast
1:15 PM 3.2 °F -18.1 °F -4.0 °F 72% 30.09 in 0.5 mi NNW 20.7 mph 29.9 mph N/A   Overcast
1:35 PM 3.2 °F -17.6 °F -2.2 °F 78% 30.10 in 0.2 mi NNW 19.6 mph 33.4 mph N/A   Overcast
1:55 PM 3.2 °F -15.3 °F -2.2 °F 78% 30.11 in 0.2 mi NNW 15.0 mph 32.2 mph N/A   Overcast
2:15 PM 3.2 °F -18.1 °F -2.2 °F 78% 30.12 in 0.5 mi NNW 20.7 mph 28.8 mph N/A   Overcast
2:35 PM 3.2 °F -18.1 °F -4.0 °F 72% 30.13 in 0.5 mi NNW 20.7 mph 34.5 mph N/A   Overcast
2:55 PM 3.2 °F -17.6 °F -2.2 °F 78% 30.14 in 0.5 mi NW 19.6 mph 31.1 mph N/A   Overcast
3:15 PM 3.2 °F -17.6 °F -2.2 °F 78% 30.17 in 0.5 mi NNW 19.6 mph 32.2 mph N/A   Overcast
3:35 PM 3.2 °F -17.6 °F -5.8 °F 66% 30.18 in 0.5 mi NNW 19.6 mph 28.8 mph N/A   Overcast
3:55 PM 3.2 °F -18.6 °F -5.8 °F 66% 30.20 in 0.5 mi NNW 21.9 mph 34.5 mph N/A   Overcast
4:15 PM 3.2 °F -18.1 °F -5.8 °F 66% 30.20 in 1.2 mi NNW 20.7 mph 32.2 mph N/A   Overcast
4:35 PM 3.2 °F -17.1 °F -7.6 °F 61% 30.22 in 1.2 mi NNW 18.4 mph 29.9 mph N/A   Overcast
4:55 PM 3.2 °F -14.6 °F -7.6 °F 61% 30.24 in 1.2 mi NNW 13.8 mph 29.9 mph N/A   Overcast
5:15 PM 1.4 °F -17.6 °F -5.8 °F 72% 30.25 in 0.8 mi NNW 15.0 mph 31.1 mph N/A   Overcast
5:35 PM 1.4 °F -19.4 °F -7.6 °F 66% 30.26 in 2.0 mi NNW 18.4 mph 27.6 mph N/A   Overcast
5:55 PM 1.4 °F -18.8 °F -9.4 °F 61% 30.28 in 2.0 mi NW 17.3 mph 29.9 mph N/A   Overcast
6:15 PM -0.4 °F -21.2 °F -9.4 °F 66% 30.29 in 2.5 mi NW 17.3 mph 27.6 mph N/A   Overcast
6:35 PM -0.4 °F -20.5 °F -9.4 °F 66% 30.31 in 2.5 mi NW 16.1 mph 26.5 mph N/A   Overcast
6:55 PM -0.4 °F -19.2 °F -9.4 °F 66% 30.32 in 3.0 mi NW 13.8 mph 25.3 mph N/A   Overcast
7:15 PM -0.4 °F -19.9 °F -9.4 °F 66% 30.33 in 3.0 mi NW 15.0 mph 31.1 mph N/A   Overcast
7:35 PM -0.4 °F -20.5 °F -9.4 °F 66% 30.34 in 3.0 mi NW 16.1 mph 24.2 mph N/A   Overcast
7:55 PM -0.4 °F -21.7 °F -9.4 °F 66% 30.35 in 2.0 mi NW 18.4 mph 25.3 mph N/A   Overcast
8:15 PM -2.2 °F -22.2 °F -9.4 °F 71% 30.36 in 1.5 mi NW 15.0 mph 26.5 mph N/A   Overcast
8:35 PM -2.2 °F -22.9 °F -7.6 °F 78% 30.36 in 2.0 mi NW 16.1 mph 23.0 mph N/A   Overcast
8:55 PM -2.2 °F -22.2 °F -9.4 °F 71% 30.37 in 2.5 mi NW 15.0 mph 24.2 mph N/A   Overcast
9:15 PM -2.2 °F -21.5 °F -9.4 °F 71% 30.38 in 1.5 mi NW 13.8 mph - N/A   Overcast
9:35 PM -2.2 °F -20.7 °F -5.8 °F 85% 30.39 in 1.5 mi NW 12.7 mph - N/A   Overcast
9:55 PM -2.2 °F -18.9 °F -7.6 °F 78% 30.40 in 2.0 mi NW 10.4 mph 16.1 mph N/A   Overcast
10:15 PM -2.2 °F -18.0 °F -7.6 °F 78% 30.40 in 2.0 mi NW 9.2 mph - N/A   Overcast
10:35 PM -2.2 °F -16.8 °F -5.8 °F 85% 30.41 in 3.0 mi WNW 8.1 mph - N/A   Overcast
10:55 PM -2.2 °F -18.0 °F -9.4 °F 71% 30.41 in 2.0 mi WNW 9.2 mph - N/A   Overcast
11:15 PM -2.2 °F -16.8 °F -5.8 °F 85% 30.42 in 2.0 mi WNW 8.1 mph - N/A   Overcast
11:35 PM -2.2 °F -18.9 °F -7.6 °F 78% 30.42 in 1.5 mi WNW 10.4 mph - N/A   Overcast
11:55 PM -2.2 °F -16.8 °F -5.8 °F 85% 30.43 in 1.8 mi WNW 8.1 mph - N/A   Overcast